KG4QXF Weather Reports


time (UTC)temp
C
wind
direction
speed
KPH
gust
KPH
rain 1hr
cm
rain 24hr
cm
rain mn
cm
humidity
%
barometer
mb
20260906124608 25 274 0.0 1.6 0.00 0.00 0.00 82 1013.6
20260906124103 25 286 1.6 3.2 0.00 0.00 0.00 83 1013.5
20260906123603 25 291 3.2 3.2 0.00 0.00 0.00 84 1013.5
20260906123058 25 278 1.6 3.2 0.00 0.00 0.00 85 1013.3
20260906122556 25 265 0.0 0.0 0.00 0.00 0.00 87 1013.3
20260906122053 24 238 0.0 0.0 0.00 0.00 0.00 88 1013.3
20260906121548 24 229 0.0 0.0 0.00 0.00 0.00 88 1013.2
20260906121045 24 227 1.6 1.6 0.00 0.00 0.00 89 1013.1
20260906120545 23 242 0.0 0.0 0.00 0.00 0.00 89 1013.2
20260906120043 23 232 0.0 0.0 0.00 0.00 0.00 90 1013.1
20260906115542 23 232 0.0 0.0 0.00 0.00 0.00 91 1013.1
20260906115038 23 232 0.0 0.0 0.00 0.00 0.00 91 1013.0
20260906114532 23 232 0.0 0.0 0.00 0.00 0.00 91 1013.0
20260906114028 23 232 0.0 0.0 0.00 0.00 0.00 91 1012.8
20260906113526 23 232 0.0 0.0 0.00 0.00 0.00 91 1013.1
20260906113022 23 232 0.0 0.0 0.00 0.00 0.00 91 1012.9
20260906112516 23 233 0.0 0.0 0.00 0.00 0.00 91 1012.8
20260906112013 23 233 0.0 0.0 0.00 0.00 0.00 91 1012.8
20260906111507 23 231 0.0 0.0 0.00 0.00 0.00 92 1012.6
20260906111002 23 231 0.0 0.0 0.00 0.00 0.00 93 1012.8
20260906110457 23 232 0.0 0.0 0.00 0.00 0.00 93 1012.8
20260906105955 23 219 0.0 0.0 0.00 0.00 0.00 93 1012.7
20260906105452 23 219 0.0 0.0 0.00 0.00 0.00 93 1012.5
20260906104947 23 219 0.0 0.0 0.00 0.00 0.00 94 1012.5
20260906104446 23 219 0.0 0.0 0.00 0.00 0.00 94 1012.7
20260906103945 23 219 0.0 0.0 0.00 0.00 0.00 94 1012.5
20260906103444 23 220 0.0 0.0 0.00 0.00 0.00 95 1012.2
20260906102939 23 220 0.0 0.0 0.00 0.00 0.00 95 1012.6
20260906102438 23 221 0.0 0.0 0.00 0.00 0.00 95 1012.5
20260906101933 23 222 0.0 0.0 0.00 0.00 0.00 95 1012.2
20260906101429 23 222 0.0 0.0 0.00 0.00 0.00 95 1012.3
20260906100924 23 222 0.0 0.0 0.00 0.00 0.00 95 1012.2
20260906100423 23 222 0.0 0.0 0.00 0.00 0.00 95 1012.1
20260906095918 23 223 0.0 0.0 0.00 0.00 0.00 95 1012.0
20260906095414 23 230 0.0 0.0 0.00 0.00 0.00 96 1011.9
20260906094913 23 231 0.0 0.0 0.00 0.00 0.00 96 1012.1
20260906094408 23 231 0.0 0.0 0.00 0.00 0.00 95 1011.9
20260906093905 23 231 0.0 0.0 0.00 0.00 0.00 95 1011.9
20260906093400 23 231 0.0 0.0 0.00 0.00 0.00 95 1011.7
20260906092855 23 231 0.0 0.0 0.00 0.00 0.00 95 1011.9
20260906092349 23 231 0.0 0.0 0.00 0.00 0.00 95 1011.7
20260906091845 23 231 0.0 0.0 0.00 0.00 0.00 95 1011.9
20260906091341 23 231 0.0 0.0 0.00 0.00 0.00 95 1011.6
20260906090837 23 231 0.0 0.0 0.00 0.00 0.00 95 1011.7
20260906090336 23 231 0.0 0.0 0.00 0.00 0.00 95 1011.6
20260906085831 23 231 0.0 0.0 0.00 0.00 0.00 95 1011.8
20260906085329 24 231 0.0 0.0 0.00 0.00 0.00 95 1011.6
20260906084824 24 231 0.0 0.0 0.00 0.00 0.00 95 1011.5
20260906084324 24 232 0.0 0.0 0.00 0.00 0.00 94 1011.8
20260906083819 24 232 0.0 0.0 0.00 0.00 0.00 94 1011.5
20260906083314 24 232 0.0 0.0 0.00 0.00 0.00 94 1011.7
20260906082809 24 232 0.0 0.0 0.00 0.00 0.00 94 1011.6
20260906082306 24 232 0.0 0.0 0.00 0.00 0.00 94 1011.8
20260906081759 24 233 0.0 0.0 0.00 0.00 0.00 93 1011.7
20260906081256 24 234 0.0 0.0 0.00 0.00 0.00 93 1011.9
20260906080752 25 234 0.0 0.0 0.00 0.00 0.00 93 1011.8
20260906080248 25 238 0.0 0.0 0.00 0.00 0.00 93 1011.7
20260906075747 25 238 0.0 0.0 0.00 0.00 0.00 93 1012.0
20260906075241 25 229 0.0 0.0 0.00 0.00 0.00 92 1012.0
20260906074737 25 209 0.0 0.0 0.00 0.00 0.00 92 1011.8
20260906074236 25 210 0.0 0.0 0.00 0.00 0.00 92 1011.7
20260906073731 25 210 0.0 0.0 0.00 0.00 0.00 91 1011.8
20260906073231 25 215 0.0 0.0 0.00 0.00 0.00 91 1011.8
20260906072726 25 215 0.0 0.0 0.00 0.00 0.00 91 1011.5
20260906072222 25 216 0.0 0.0 0.00 0.00 0.00 90 1011.8
20260906071718 25 216 0.0 0.0 0.00 0.00 0.00 90 1011.9
20260906071218 25 217 0.0 0.0 0.00 0.00 0.00 90 1011.9
20260906070715 25 217 0.0 0.0 0.00 0.00 0.00 90 1012.1
20260906070210 25 217 0.0 0.0 0.00 0.00 0.00 91 1012.2
20260906065709 25 217 0.0 0.0 0.00 0.00 0.00 91 1012.3
20260906065205 25 217 0.0 0.0 0.00 0.00 0.00 91 1012.5
20260906064701 25 217 0.0 0.0 0.00 0.00 0.00 91 1012.2
20260906064201 25 217 0.0 0.0 0.00 0.00 0.00 90 1012.3
20260906063656 25 217 0.0 0.0 0.00 0.00 0.00 91 1012.4
20260906063152 25 208 0.0 0.0 0.00 0.00 0.00 92 1012.3
20260906062648 25 211 0.0 0.0 0.00 0.00 0.00 92 1012.5
20260906062146 25 211 0.0 0.0 0.00 0.00 0.00 93 1012.5
20260906061642 26 213 0.0 0.0 0.00 0.00 0.00 94 1012.5
20260906061142 26 213 0.0 0.0 0.00 0.00 0.00 94 1012.6
20260906060639 26 212 0.0 0.0 0.00 0.00 0.00 95 1012.7
20260906060136 26 212 0.0 0.0 0.00 0.00 0.00 95 1012.4
20260906055631 26 212 0.0 0.0 0.00 0.00 0.00 95 1012.4
20260906055126 26 212 0.0 0.0 0.00 0.00 0.00 95 1012.4
20260906054621 26 212 0.0 0.0 0.00 0.00 0.00 95 1012.6
20260906054117 26 212 0.0 0.0 0.00 0.00 0.00 95 1012.8
20260906053613 27 212 0.0 0.0 0.00 0.00 0.00 95 1012.7
20260906053108 27 212 0.0 0.0 0.00 0.00 0.00 95 1012.9
20260906052604 27 212 0.0 0.0 0.00 0.00 0.00 95 1012.7
20260906052101 27 212 0.0 0.0 0.00 0.00 0.00 94 1012.6
20260906051556 27 212 0.0 0.0 0.00 0.00 0.00 94 1012.8
20260906051051 27 211 0.0 0.0 0.00 0.00 0.00 94 1012.7
20260906050546 27 216 0.0 0.0 0.00 0.00 0.00 94 1012.7
20260906050041 27 216 0.0 0.0 0.00 0.00 0.00 94 1012.8
20260906045539 27 217 0.0 0.0 0.00 0.00 0.00 93 1012.5
20260906045035 27 217 0.0 0.0 0.00 0.00 0.00 93 1012.9
20260906044531 27 217 0.0 0.0 0.00 0.00 0.00 93 1013.1
20260906044026 27 217 0.0 0.0 0.00 0.00 0.00 93 1012.9
20260906043521 27 217 0.0 0.0 0.00 0.00 0.00 93 1013.2
20260906043018 27 265 0.0 0.0 0.00 0.00 0.00 93 1013.2
20260906042516 27 290 0.0 0.0 0.00 0.00 0.00 93 1013.1
20260906042011 27 295 0.0 0.0 0.00 0.00 0.00 93 1013.2
20260906041508 27 277 0.0 0.0 0.00 0.00 0.00 93 1013.2
20260906041007 27 222 0.0 0.0 0.00 0.00 0.00 93 1013.3
20260906040502 27 222 0.0 0.0 0.00 0.00 0.00 93 1013.1
20260906035957 27 336 0.0 0.0 0.00 0.00 0.00 93 1013.3
20260906035453 27 246 0.0 0.0 0.00 0.00 0.00 93 1013.3
20260906034949 27 247 0.0 0.0 0.00 0.00 0.00 92 1013.1
20260906034449 27 189 0.0 0.0 0.00 0.00 0.00 92 1013.2
20260906033944 27 146 0.0 0.0 0.00 0.00 0.00 92 1013.0
20260906033444 28 141 0.0 0.0 0.00 0.00 0.00 92 1012.9
20260906032935 28 122 0.0 0.0 0.00 0.00 0.00 91 1013.0
20260906032431 28 118 0.0 0.0 0.00 0.00 0.00 91 1013.1
20260906031930 28 280 0.0 0.0 0.00 0.00 0.00 91 1013.1
20260906031426 28 35 0.0 0.0 0.00 0.00 0.00 91 1013.3
20260906030921 28 200 0.0 1.6 0.00 0.00 0.00 90 1013.0
20260906030415 28 109 0.0 4.8 0.00 0.00 0.00 90 1013.0
20260906025910 28 7 0.0 3.2 0.00 0.00 0.00 90 1012.9
20260906025404 28 138 0.0 3.2 0.00 0.00 0.00 90 1012.9
20260906024903 28 34 1.6 3.2 0.00 0.00 0.00 90 1012.7
20260906024402 28 50 3.2 4.8 0.00 0.00 0.00 90 1012.8
20260906023858 28 119 1.6 3.2 0.00 0.00 0.00 90 1012.7
20260906023355 28 53 3.2 3.2 0.00 0.00 0.00 91 1012.7
20260906022854 28 87 0.0 0.0 0.00 0.00 0.00 91 1012.8
20260906022349 28 150 0.0 0.0 0.00 0.00 0.00 91 1012.7
20260906021846 28 93 1.6 6.4 0.00 0.00 0.00 91 1012.1
20260906021345 28 59 0.0 0.0 0.00 0.00 0.00 91 1012.3
20260906020839 28 164 0.0 0.0 0.00 0.00 0.00 91 1012.7
20260906020338 28 164 0.0 0.0 0.00 0.00 0.00 91 1012.9
20260906015833 28 247 0.0 0.0 0.00 0.00 0.00 91 1012.3
20260906015332 28 274 0.0 0.0 0.00 0.00 0.00 91 1012.0
20260906014826 28 268 0.0 0.0 0.00 0.00 0.00 91 1012.0
20260906014321 28 78 0.0 3.2 0.00 0.00 0.00 90 1011.6
20260906013818 28 62 4.8 9.7 0.00 0.00 0.00 90 1011.3
20260906013314 28 125 0.0 4.8 0.00 0.00 0.00 90 1011.4
20260906012809 28 134 0.0 0.0 0.00 0.00 0.00 89 1011.7
20260906012309 28 321 0.0 0.0 0.00 0.00 0.00 89 1011.9
20260906011804 28 324 0.0 0.0 0.00 0.00 0.00 89 1012.1
20260906011304 28 126 0.0 4.8 0.00 0.00 0.00 88 1012.4
20260906010800 28 105 1.6 6.4 0.00 0.00 0.00 88 1012.4
20260906010256 28 319 1.6 4.8 0.00 0.00 0.00 88 1012.5
20260906005751 28 95 0.0 1.6 0.00 0.00 0.00 88 1012.6
20260906005249 28 124 0.0 3.2 0.00 0.00 0.00 88 1012.5
20260906004743 28 72 3.2 4.8 0.00 0.00 0.00 87 1012.4
20260906004238 28 72 3.2 9.7 0.00 0.00 0.00 87 1012.6
20260906003733 28 79 0.0 1.6 0.00 0.00 0.00 87 1012.7
20260906003229 28 76 3.2 9.7 0.00 0.00 0.00 87 1012.8
20260906002728 28 131 0.0 3.2 0.00 0.00 0.00 87 1012.6
20260906002223 28 110 1.6 6.4 0.00 0.00 0.00 87 1012.7
20260906001719 28 46 1.6 1.6 0.00 0.00 0.00 87 1013.0
20260906001219 28 149 0.0 0.0 0.00 0.00 0.00 87 1013.2
20260906000714 28 42 1.6 3.2 0.00 0.00 0.00 87 1013.0
20260906000211 28 58 4.8 6.4 0.00 0.00 0.00 86 1012.9
20260905235709 28 98 3.2 4.8 0.00 0.00 0.00 86 1013.0
20260905235204 28 104 3.2 6.4 0.00 0.00 0.00 86 1012.6
20260905234659 28 109 3.2 4.8 0.00 0.00 0.00 86 1013.0
20260905234154 28 39 1.6 3.2 0.00 0.00 0.00 86 1012.9
20260905233649 28 87 3.2 6.4 0.00 0.00 0.00 86 1013.2
20260905233148 28 117 1.6 3.2 0.00 0.00 0.00 86 1013.1
20260905232644 28 95 0.0 6.4 0.00 0.00 0.00 86 1012.7
20260905232140 28 33 3.2 6.4 0.00 0.00 0.00 86 1012.9
20260905231634 28 65 3.2 3.2 0.00 0.00 0.00 86 1012.9
20260905231131 29 75 0.0 1.6 0.00 0.00 0.00 86 1012.8
20260905230627 29 78 3.2 9.7 0.00 0.00 0.00 86 1012.7
20260905230125 29 93 1.6 6.4 0.00 0.00 0.00 85 1012.7
20260905225618 29 63 1.6 4.8 0.00 0.00 0.00 85 1012.7
20260905225113 30 95 1.6 3.2 0.00 0.00 0.00 84 1012.6
20260905224608 30 92 6.4 11.3 0.00 0.00 0.00 84 1012.7
20260905224107 30 122 3.2 3.2 0.00 0.00 0.00 84 1012.9
20260905223604 30 98 4.8 11.3 0.00 0.00 0.00 83 1012.7
20260905223100 30 50 8.0 11.3 0.00 0.00 0.00 83 1012.4
20260905222600 30 51 1.6 4.8 0.00 0.00 0.00 82 1012.5
20260905222055 30 92 1.6 9.7 0.00 0.00 0.00 82 1012.6
20260905221551 30 122 3.2 6.4 0.00 0.00 0.00 80 1012.5
20260905221047 30 150 3.2 6.4 0.00 0.00 0.00 80 1012.5
20260905220543 30 77 3.2 6.4 0.00 0.00 0.00 80 1012.5
20260905220039 31 49 3.2 4.8 0.00 0.00 0.00 80 1012.5
20260905215538 30 88 1.6 3.2 0.00 0.00 0.00 81 1012.3
20260905215034 31 72 6.4 12.9 0.00 0.00 0.00 80 1012.5
20260905214530 31 52 1.6 9.7 0.00 0.00 0.00 80 1012.3
20260905214025 31 138 1.6 6.4 0.00 0.00 0.00 80 1012.4
20260905213520 30 337 0.0 11.3 0.00 0.00 0.00 80 1012.4
20260905213016 30 103 1.6 11.3 0.00 0.00 0.00 80 1012.4
20260905212510 31 101 3.2 11.3 0.00 0.00 0.00 79 1012.5
20260905212010 31 2 1.6 6.4 0.00 0.00 0.00 80 1012.4
20260905211505 30 154 3.2 12.9 0.00 0.00 0.00 80 1012.3
20260905211001 30 71 3.2 11.3 0.00 0.00 0.00 80 1012.3
20260905210456 31 87 4.8 11.3 0.00 0.00 0.00 80 1012.2
20260905205955 31 49 3.2 4.8 0.00 0.00 0.00 80 1012.4
20260905205450 31 103 3.2 4.8 0.00 0.00 0.00 78 1012.2
20260905204949 31 313 3.2 4.8 0.00 0.00 0.00 78 1012.2
20260905204440 31 58 3.2 4.8 0.00 0.00 0.00 78 1012.0
20260905203939 31 98 3.2 9.7 0.00 0.00 0.00 78 1012.0
20260905203434 31 327 4.8 11.3 0.00 0.00 0.00 78 1012.0
20260905202929 31 72 0.0 3.2 0.00 0.00 0.00 79 1011.9
20260905202425 31 123 8.0 11.3 0.00 0.00 0.00 79 1012.0
20260905201920 31 10 0.0 4.8 0.00 0.00 0.00 78 1011.8
20260905201416 31 62 1.6 6.4 0.00 0.00 0.00 77 1011.8
20260905200915 31 53 1.6 12.9 0.00 0.00 0.00 78 1012.0
20260905200411 32 177 3.2 3.2 0.00 0.00 0.00 77 1012.0
20260905195908 31 40 1.6 6.4 0.00 0.00 0.00 78 1012.0
20260905195404 32 123 1.6 9.7 0.00 0.00 0.00 77 1012.0
20260905194900 32 120 6.4 11.3 0.00 0.00 0.00 76 1012.2
20260905194359 31 85 1.6 12.9 0.00 0.00 0.00 78 1012.1
20260905193854 31 120 3.2 4.8 0.00 0.00 0.00 78 1012.2
20260905193349 32 102 3.2 9.7 0.00 0.00 0.00 77 1012.2
20260905192845 32 212 3.2 6.4 0.00 0.00 0.00 76 1012.4
20260905192340 32 90 1.6 4.8 0.00 0.00 0.00 76 1012.6
20260905191839 32 320 1.6 9.7 0.00 0.00 0.00 76 1012.4
20260905191338 32 119 3.2 9.7 0.00 0.00 0.00 75 1012.7
20260905190837 32 332 3.2 4.8 0.00 0.00 0.00 75 1012.8
20260905190331 32 74 8.0 11.3 0.00 0.00 0.00 73 1012.7
20260905185830 33 140 3.2 6.4 0.00 0.00 0.00 73 1012.9
20260905185325 33 61 0.0 3.2 0.00 0.00 0.00 72 1013.1
20260905184824 32 67 0.0 9.7 0.00 0.00 0.00 74 1013.2
20260905184323 32 83 3.2 9.7 0.00 0.00 0.00 74 1013.4
20260905183821 33 153 0.0 6.4 0.00 0.00 0.00 73 1013.2
20260905183317 33 8 1.6 3.2 0.00 0.00 0.00 73 1013.3
20260905182812 33 59 1.6 6.4 0.00 0.00 0.00 73 1013.5
20260905182311 32 84 6.4 9.7 0.00 0.00 0.00 74 1013.5
20260905181807 32 337 0.0 6.4 0.00 0.00 0.00 74 1013.6
20260905181306 33 40 0.0 3.2 0.00 0.00 0.00 73 1013.6
20260905180801 32 82 3.2 4.8 0.00 0.00 0.00 74 1013.6
20260905180255 33 98 3.2 4.8 0.00 0.00 0.00 71 1013.6
20260905175750 33 322 0.0 3.2 0.00 0.00 0.00 74 1013.6
20260905175245 32 106 0.0 3.2 0.00 0.00 0.00 74 1013.6
20260905174740 33 53 3.2 6.4 0.00 0.00 0.00 73 1013.7
20260905174235 33 104 6.4 12.9 0.00 0.00 0.00 74 1013.8
20260905173731 33 252 0.0 1.6 0.00 0.00 0.00 73 1013.9
20260905173227 32 103 9.7 12.9 0.00 0.00 0.00 74 1014.2
20260905172727 32 44 1.6 9.7 0.00 0.00 0.00 75 1014.3
20260905172220 31 67 3.2 11.3 0.00 0.00 0.00 77 1014.2
20260905171716 33 58 4.8 6.4 0.00 0.00 0.00 74 1014.3
20260905171212 33 307 0.0 1.6 0.00 0.00 0.00 70 1014.2
20260905170710 33 111 3.2 11.3 0.00 0.00 0.00 70 1014.1
20260905170209 32 77 3.2 9.7 0.00 0.00 0.00 73 1014.4
20260905165709 33 92 3.2 3.2 0.00 0.00 0.00 73 1014.4
20260905165204 32 298 0.0 3.2 0.00 0.00 0.00 74 1014.6
20260905164654 33 103 1.6 6.4 0.00 0.00 0.00 70 1014.5
20260905164153 32 42 3.2 4.8 0.00 0.00 0.00 67 1014.7
20260905163649 33 61 1.6 6.4 0.00 0.00 0.00 64 1014.9
20260905163146 34 87 1.6 3.2 0.00 0.00 0.00 64 1014.7
20260905162641 33 267 0.0 1.6 0.00 0.00 0.00 66 1014.9
20260905162140 33 327 0.0 0.0 0.00 0.00 0.00 67 1015.1
20260905161635 33 125 0.0 4.8 0.00 0.00 0.00 68 1015.1
20260905161133 33 43 1.6 1.6 0.00 0.00 0.00 67 1015.4
20260905160633 32 208 0.0 0.0 0.00 0.00 0.00 69 1015.4
20260905160126 32 322 0.0 3.2 0.00 0.00 0.00 72 1015.5
20260905155621 33 167 0.0 0.0 0.00 0.00 0.00 69 1015.6
20260905155120 33 138 0.0 0.0 0.00 0.00 0.00 70 1015.7
20260905154620 32 93 0.0 0.0 0.00 0.00 0.00 71 1015.7
20260905154115 31 1 3.2 4.8 0.00 0.00 0.00 72 1015.6
20260905153611 32 188 0.0 1.6 0.00 0.00 0.00 71 1015.6
20260905153106 32 345 0.0 3.2 0.00 0.00 0.00 70 1015.6
20260905152601 33 246 0.0 1.6 0.00 0.00 0.00 69 1015.7
20260905152055 32 150 0.0 4.8 0.00 0.00 0.00 70 1015.8
20260905151551 32 47 3.2 6.4 0.00 0.00 0.00 72 1015.6
20260905151046 32 16 0.0 0.0 0.00 0.00 0.00 72 1015.8
20260905150541 32 215 0.0 1.6 0.00 0.00 0.00 74 1015.6
20260905150039 32 245 0.0 0.0 0.00 0.00 0.00 75 1015.7
20260905145532 31 144 1.6 3.2 0.00 0.00 0.00 77 1015.6
20260905145032 31 145 0.0 1.6 0.00 0.00 0.00 77 1015.8
20260905144522 31 66 1.6 1.6 0.00 0.00 0.00 76 1015.7
20260905144021 31 294 0.0 0.0 0.00 0.00 0.00 75 1015.7
20260905143520 30 77 0.0 1.6 0.00 0.00 0.00 79 1015.9
20260905143015 30 220 0.0 6.4 0.00 0.00 0.00 81 1015.8
20260905142514 30 28 0.0 4.8 0.00 0.00 0.00 80 1015.9
20260905142009 29 139 3.2 9.7 0.00 0.00 0.00 82 1015.8
20260905141508 30 204 0.0 0.0 0.00 0.00 0.00 81 1015.7
20260905141006 30 70 0.0 4.8 0.00 0.00 0.00 82 1015.6
20260905140500 29 279 0.0 0.0 0.00 0.00 0.00 83 1015.6
20260905135958 29 39 0.0 0.0 0.00 0.00 0.00 85 1015.7
20260905135455 28 150 0.0 1.6 0.00 0.00 0.00 87 1015.8
20260905134950 28 78 1.6 1.6 0.00 0.00 0.00 87 1015.9
20260905134449 28 90 0.0 3.2 0.00 0.00 0.00 87 1015.9
20260905133948 28 274 0.0 1.6 0.00 0.00 0.00 88 1015.7
20260905133444 28 188 0.0 0.0 0.00 0.00 0.00 88 1016.0
20260905132943 28 342 0.0 1.6 0.00 0.00 0.00 88 1015.8
20260905132438 28 343 1.6 1.6 0.00 0.00 0.00 89 1016.0
20260905131933 28 49 0.0 1.6 0.00 0.00 0.00 90 1016.1
20260905131430 27 205 0.0 0.0 0.00 0.00 0.00 91 1016.1
20260905130929 27 229 0.0 0.0 0.00 0.00 0.00 92 1016.1
20260905130423 27 247 0.0 1.6 0.00 0.00 0.00 93 1016.0
20260905125923 27 181 0.0 1.6 0.00 0.00 0.00 94 1016.0
20260905125418 27 180 0.0 1.6 0.00 0.00 0.00 95 1016.0
20260905124914 27 58 0.0 0.0 0.00 0.00 0.00 95 1016.0